Weather History for Northolt, United Kingdom

Change the Weather History Date:

Saturday, November 3, 2012

  Actual Average Record
Temperature  
Mean Temperature 40 °F -  
Max Temperature 50 °F 48 °F 62 °F (1996)
Min Temperature 30 °F 39 °F 30 °F (2006)
Degree Days  
Heating Degree Days 25    
Moisture  
Dew Point 34 °F    
Average Humidity 78    
Maximum Humidity 100    
Minimum Humidity 49    
Precipitation  
Precipitation 0.00 in - - ()
Sea Level Pressure  
Sea Level Pressure 29.42 in    
Wind  
Wind Speed 5 mph ()    
Max Wind Speed 20 mph    
Max Gust Speed 30 mph    
Visibility 7.4 miles    
Events      
Averages and records for this station are not official NWS values.
T = Trace of Precipitation, MM = Missing Value Source: Averaged Metar Reports

Daily Weather History Graph

Daily Weather History Graph

Search for Another Location

Airport:

Trip Planner

Search our weather history database for the weather conditions in past years. The results will help you decide how hot, cold, wet, or windy it might be!

Date:

Astronomy

Nov. 03, 2012 Rise Set
Actual Time 6:59 AM GMT 4:30 PM GMT
Civil Twilight 6:23 AM GMT 5:05 PM GMT
Nautical Twilight 5:44 AM GMT 5:45 PM GMT
Astronomical Twilight 5:05 AM GMT 6:24 PM GMT
Moon 7:45 PM GMT (11/3) 11:06 AM GMT (11/3)
Length of Visible Light 10h 41m
Length of Day
9h 30m
Waning Gibbous, 82% of the Moon is Illuminated
Nov 3
Waning Gibbous
Nov 7
Last Quarter
Nov 13
New
Nov 20
First Quarter
Nov 28
Full

Hourly Weather History & Observations

Time (GMT) Temp. Windchill Dew Point Humidity Pressure Visibility Wind Dir Wind Speed Gust Speed Precip Events Conditions
12:50 AM 33.8 °F - 32.0 °F 93% 29.39 in 6.2 mi SSE 2.3 mph - N/A   Unknown
1:50 AM 33.8 °F - 32.0 °F 93% 29.39 in 6.2 mi North 1.2 mph - N/A   Partly Cloudy
2:50 AM 32 °F - 31 °F 96% 29.38 in 15 mi NE 1.2 mph - -  
2:50 AM 32.0 °F - 32.0 °F 100% 29.36 in 6.2 mi NE 1.2 mph - N/A   Unknown
3:50 AM 32.0 °F - 30.2 °F 93% 29.36 in 6.2 mi ESE 2.3 mph - N/A   Scattered Clouds
4:50 AM 30.2 °F - 30.2 °F 100% 29.33 in 6.2 mi West 1.2 mph - N/A   Mostly Cloudy
5:50 AM 31 °F - 31 °F 97% 29.35 in 11 mi NNW 1.2 mph - -   Partly Cloudy
5:50 AM 32.0 °F - 30.2 °F 93% 29.33 in 6.2 mi NNW 1.2 mph - N/A   Mostly Cloudy
6:50 AM 33.8 °F - 33.8 °F 100% 29.33 in 6.2 mi North 1.2 mph - N/A   Mostly Cloudy
7:50 AM 35.6 °F - 35.6 °F 100% 29.33 in 6.2 mi SE 2.3 mph - N/A   Mostly Cloudy
8:50 AM 43 °F - 39 °F 80% 29.36 in 19 mi SW 6.9 mph - -   Scattered Clouds
8:50 AM 42.8 °F 38.6 °F 39.2 °F 87% 29.33 in 6.2 mi SW 6.9 mph - N/A   Partly Cloudy
9:50 AM 46.4 °F 40.1 °F 37.4 °F 71% 29.36 in 6.2 mi WSW 15.0 mph - N/A   Partly Cloudy
10:50 AM 46.4 °F 39.0 °F 35.6 °F 66% 29.39 in 6.2 mi West 19.6 mph - N/A   Mostly Cloudy
11:50 AM 47 °F - 34 °F 49% 29.41 in 31 mi West 19.6 mph - -   Partly Cloudy
11:50 AM 48.2 °F - 33.8 °F 58% 29.39 in 6.2 mi West 19.6 mph - N/A   Scattered Clouds
12:50 PM 50.0 °F - 32.0 °F 50% 29.42 in 6.2 mi West 18.4 mph 29.9 mph N/A   Scattered Clouds
1:50 PM 48.2 °F - 33.8 °F 58% 29.42 in 6.2 mi West 13.8 mph - N/A   Scattered Clouds
2:50 PM 47 °F - 35 °F 52% 29.46 in 37 mi WSW 10.4 mph - -   Scattered Clouds
2:50 PM 48.2 °F - 35.6 °F 62% 29.44 in 6.2 mi WSW 10.4 mph - N/A   Mostly Cloudy
3:50 PM 46.4 °F 42.4 °F 33.8 °F 62% 29.47 in 6.2 mi WSW 8.1 mph - N/A   Mostly Cloudy
4:50 PM 44.6 °F 42.2 °F 35.6 °F 71% 29.47 in 6.2 mi SW 4.6 mph - N/A   Mostly Cloudy
5:50 PM 44 °F - 35 °F 60% 29.49 in 14 mi SW 4.6 mph - -   Mostly Cloudy
5:50 PM 42.8 °F 40.1 °F 35.6 °F 76% 29.47 in - SW 4.6 mph - N/A   Clear
6:50 PM 44.6 °F 41.4 °F 35.6 °F 71% 29.47 in 6.2 mi SW 5.8 mph - N/A   Overcast
7:50 PM 42.8 °F 38.0 °F 33.8 °F 70% 29.47 in 6.2 mi SW 8.1 mph - N/A   Partly Cloudy
8:50 PM 42 °F - 33 °F 59% 29.52 in 9 mi SW 5.8 mph - -   Scattered Clouds
8:50 PM 41.0 °F 37.1 °F 32.0 °F 70% 29.50 in - SW 5.8 mph - N/A   Clear
9:50 PM 39.2 °F 37.0 °F 33.8 °F 81% 29.50 in 6.2 mi WSW 3.5 mph - N/A   Unknown
10:50 PM 35.6 °F - 32.0 °F 87% 29.50 in 4.3 mi Calm Calm - N/A   Unknown
11:50 PM 35 °F - 32 °F 83% 29.53 in 3 mi SSE 2.3 mph - -   Partly Cloudy
11:50 PM 33.8 °F - 32.0 °F 93% 29.50 in - SSE 2.3 mph - N/A   Scattered Clouds